Regional Weather Roundup
Issued by NWS

Home | Current Version | Previous Version | Graphics & Text | Print | Product List | Glossary On
Versions: 1 2 3 4 5 6 7 8 9 10 11 12 13 14 15 16 17 18 19 20 21 22 23 24 25 26 27 28 29 30 31 32 33 34 35 36 37 38 39 40 41 42 43 44 45 46 47 48 49 50
000
ASUS43 KBIS 301120
RWRND

NORTH DAKOTA REGIONAL WEATHER ROUNDUP
NATIONAL WEATHER SERVICE BISMARCK ND
600 AM CDT SAT AUG 30 2014

NOTE: "FAIR" INDICATES FEW OR NO CLOUDS BELOW 12,000 FEET WITH NO
SIGNIFICANT WEATHER AND/OR OBSTRUCTIONS TO VISIBILITY.


NDZ001>003-009>011-017-301200-
NORTHWEST NORTH DAKOTA

CITY           SKY/WX    TMP DP  RH WIND       PRES   REMARKS
WILLISTON      CLEAR     56  51  84 S6        29.90F
MINOT          CLEAR     45  43  93 E5        29.95S
MINOT AFB      CLEAR     45  43  93 SE7       29.94F
$$

NDZ018>021-031>035-040>046-301200-
SOUTHWEST NORTH DAKOTA

CITY           SKY/WX    TMP DP  RH WIND       PRES   REMARKS
BISMARCK       FOG       46  46 100 CALM      29.98F VSB 3/4
DICKINSON      CLEAR     51  49  92 SE12      29.93F
GARRISON         N/A     50  49  96 E3        29.95F
HETTINGER ARPT MOCLDY    52  50  93 SE7       29.96S
$$

NDZ004>008-012>016-024-026-027-054-301200-
NORTHEAST NORTH DAKOTA

CITY           SKY/WX    TMP DP  RH WIND       PRES   REMARKS
GRAND FORKS    CLEAR     49  47  93 NW6       29.95R
GRND FRKS AFB  CLEAR     49  48  99 N6        29.96R
DEVILS LAKE    CLEAR     45  39  81 NE5       29.96S
$$

NDZ022-023-025-028>030-036>039-047>053-301200-
SOUTHEAST NORTH DAKOTA

CITY           SKY/WX    TMP DP  RH WIND       PRES   REMARKS
FARGO          CLOUDY    56  52  86 N13       29.91R
JAMESTOWN      CLEAR     49  48  97 NW3       29.96S
$$



USA.gov is the U.S. government's official web portal to all federal, state and local government web resources and services.